Powrót do katalogu

COSMOS 1133

AktywnyNawigacjaLEO
NORAD 11541·PAYLOAD·🇷🇺 Russia

Wystrzelony Sep 25, 1979 z Plesetsk Cosmodrome

Loading…

Następne Przeloty (najbliższe 24 godziny)

TLE

ŚwieżeSource: Space-Track

Epoka: Sep 14, 2026, 04:37 UTC

1 11541U 79084D   26257.19297934  .00000007  00000-0  14993-3 0  9992
2 11541  74.0258 170.2608 0028547 235.4355 277.6814 12.50884915 78910

Śledź COSMOS 1133 w czasie rzeczywistym z AllMySat

Download on the App Store